Location: Unspec
(0.0000°N, 0.0000°E)
Time: 19:08:29
(UTC+00:00)

ISS - Visible Passes

Search period start: 11 December 2017 00:00
Search period end: 21 December 2017 00:00
Orbit: 402 x 407 km, 51.6° (Epoch: 11 December)

Date Brightness Start Highest point End Pass type
(mag) Time Alt. Az. Time Alt. Az. Time Alt. Az.
18 Dec -4.0 19:15:30 10° NNW 19:18:45 81° ENE 19:19:29 50° SE visible
19 Dec -2.8 18:23:41 10° N 18:26:29 26° NE 18:29:16 10° ESE visible
20 Dec -1.1 19:07:48 10° WNW 19:10:26 23° SW 19:13:05 10° S visible
